Weather History for Wooster, OH

Change the Weather History Date:

Wednesday, September 25, 2013

  Actual Average Record
Temperature  
Mean Temperature 56 °F -  
Max Temperature 73 °F 68 °F 91 °F (2007)
Min Temperature 39 °F 44 °F 39 °F (1999)
Degree Days  
Heating Degree Days 10    
Growing Degree Days 6 (Base 50)    
Moisture  
Dew Point 45 °F    
Average Humidity 82    
Maximum Humidity 100    
Minimum Humidity 42    
Precipitation  
Precipitation 0.00 in - - ()
Sea Level Pressure  
Sea Level Pressure 29.97 in    
Wind  
Wind Speed 1 mph (NE)    
Max Wind Speed 10 mph    
Max Gust Speed -    
Visibility 5 miles    
Events Fog    
Averages and records for this station are not official NWS values.
T = Trace of Precipitation, MM = Missing Value Source: NWS Daily Summary

Daily Weather History Graph

Daily Weather History Graph

Search for Another Location

Airport:

Trip Planner

Search our weather history database for the weather conditions in past years. The results will help you decide how hot, cold, wet, or windy it might be!

Date:

Astronomy

Sep. 25, 2013 Rise Set
Actual Time 7:18 AM EDT 7:19 PM EDT
Civil Twilight 6:50 AM EDT 7:46 PM EDT
Nautical Twilight 6:18 AM EDT 8:18 PM EDT
Astronomical Twilight 5:46 AM EDT 8:50 PM EDT
Moon 11:22 PM EDT (9/25) 1:25 PM EDT (9/25)
Length of Visible Light 12h 55m
Length of Day
12h 00m
Waning Gibbous, 64% of the Moon is Illuminated
Sep 25
Waning Gibbous
Sep 26
Last Quarter
Oct 4
New
Oct 11
First Quarter
Oct 18
Full

Hourly Weather History & Observations

Time (EDT) Temp. Windchill Dew Point Humidity Pressure Visibility Wind Dir Wind Speed Gust Speed Precip Events Conditions
12:56 AM 43.0 °F - 42.1 °F 97% 30.01 in 5.0 mi Calm Calm - N/A   Clear
1:20 AM 42.8 °F - 42.8 °F 100% 30.00 in 2.0 mi Calm Calm - N/A   Clear
1:38 AM 44.6 °F - 44.6 °F 100% 30.00 in 1.8 mi Calm Calm - N/A   Clear
1:56 AM 42.1 °F - 39.9 °F 92% 30.00 in 1.2 mi Calm Calm - N/A   Clear
2:15 AM 44.6 °F - 44.6 °F 100% 29.99 in 2.5 mi Calm Calm - N/A   Clear
2:37 AM 44.6 °F - 44.6 °F 100% 29.99 in 0.8 mi Calm Calm - N/A   Clear
2:56 AM 43.0 °F - 42.1 °F 97% 29.99 in 0.2 mi Calm Calm - N/A Fog Fog
3:37 AM 41.0 °F - 39.2 °F 93% 29.98 in 0.2 mi Calm Calm - N/A Fog Fog
3:56 AM 41.0 °F - 39.0 °F 93% 29.98 in 0.2 mi Calm Calm - N/A Fog Fog
4:56 AM 39.0 °F - 37.9 °F 96% 29.96 in 0.2 mi Calm Calm - N/A Fog Fog
5:03 AM 39.2 °F - 39.2 °F 100% 29.96 in 0.2 mi Calm Calm - N/A Fog Fog
5:56 AM 39.0 °F - 37.9 °F 96% 29.98 in 0.2 mi Calm Calm - N/A Fog Fog
6:42 AM 39.2 °F - 37.4 °F 93% 29.96 in 0.2 mi Calm Calm - N/A Fog Fog
6:56 AM 39.0 °F - 37.9 °F 96% 29.96 in 0.5 mi Calm Calm - N/A Fog Fog
7:32 AM 39.2 °F - 39.2 °F 100% 29.96 in 0.2 mi Calm Calm - N/A Fog Fog
7:43 AM 39.2 °F - 39.2 °F 100% 29.96 in 1.2 mi Calm Calm - N/A   Clear
7:56 AM 39.9 °F 37.8 °F 39.0 °F 97% 29.98 in 2.0 mi ENE 3.5 mph - N/A   Clear
8:23 AM 46.4 °F - 46.4 °F 100% 29.96 in 1.8 mi Calm Calm - N/A   Clear
8:32 AM 48.2 °F - 46.4 °F 93% 29.97 in 2.5 mi Calm Calm - N/A   Clear
8:45 AM 51.8 °F - 50.0 °F 94% 29.97 in 4.0 mi ENE 3.5 mph - N/A   Clear
8:56 AM 52.0 °F - 51.1 °F 97% 29.98 in 7.0 mi Calm Calm - N/A   Clear
9:56 AM 61.0 °F - 51.1 °F 70% 29.99 in 10.0 mi Calm Calm - N/A   Clear
10:56 AM 66.0 °F - 50.0 °F 56% 29.99 in 10.0 mi East 6.9 mph - N/A   Clear
11:56 AM 68.0 °F - 50.0 °F 52% 29.98 in 10.0 mi East 8.1 mph - N/A   Clear
12:56 PM 70.0 °F - 48.0 °F 46% 29.97 in 10.0 mi East 10.4 mph - N/A   Clear
1:56 PM 70.0 °F - 48.9 °F 47% 29.95 in 10.0 mi East 4.6 mph - N/A   Clear
2:56 PM 71.1 °F - 46.9 °F 42% 29.93 in 10.0 mi East 6.9 mph - N/A   Clear
3:56 PM 70.0 °F - 48.0 °F 46% 29.93 in 10.0 mi ENE 6.9 mph - N/A   Clear
4:56 PM 72.0 °F - 48.0 °F 43% 29.92 in 10.0 mi NE 8.1 mph - N/A   Clear
5:56 PM 69.1 °F - 48.9 °F 49% 29.93 in 10.0 mi NE 4.6 mph - N/A   Clear
6:56 PM 66.0 °F - 50.0 °F 56% 29.94 in 10.0 mi North 3.5 mph - N/A   Clear
7:56 PM 60.1 °F - 48.9 °F 67% 29.95 in 10.0 mi North 5.8 mph - N/A   Clear
8:56 PM 59.0 °F - 52.0 °F 78% 29.96 in 10.0 mi North 3.5 mph - N/A   Clear
9:56 PM 55.9 °F - 52.0 °F 87% 29.96 in 10.0 mi North 3.5 mph - N/A   Clear
10:56 PM 55.0 °F - 51.1 °F 86% 29.96 in 10.0 mi NNE 4.6 mph - N/A   Clear
11:56 PM 52.0 °F - 48.9 °F 89% 29.98 in 10.0 mi Calm Calm - N/A   Clear